NUSAT-5 (MARYAM) (43204 NORAD) Tracking and Keplerian Element Data

This shows tracking and keplerian element data for the satellite.

Feedback or suggestion? Click here.




ElementValue
Catalog43204
NameNUSAT-5 (MARYAM)
Epoch Orbit6712
Epoch Day111.83799595
Epoch Year2019
RAAN240.2763
Inclination97.3864
Eccentricity0.0018396
Argument of Perigee142.0147
Mean Anonmoly16.6242
Mean Motion15.2384235
Decay Rate1.19E-05
L11 43204U 18015K 19111.83799595 .00001190 00000-0 52129-4 0 9990
L22 43204 97.3864 240.2763 0018396 142.0147 16.6242 15.23842350 67122

Live tracking and technical data element details for NUSAT-5 (MARYAM) (NORAD 43204). NUSAT-5 (MARYAM) can be tracked NOW for your location showing map with azimuth and elevation plus other details from your city location.

Track the satellite on the map from your city or location and see movement details for azimuth, elevation, latitude, longitude, range, height, and movement on the map or in text.







IsCatalogInMostPopularTable: catalog: 43204, numindb: 222
Update: records affected: 1



GetName: 43204 NUSAT-5 (MARYAM)

Hit Count: updated at: Tue, 23 Apr 2019 03:06:14 GMT